Back to catalog

DELTA 1 DEB

AliveSSO
NORAD 21678·DEBRIS·🇺🇸 United States

Launched Jun 12, 1975 from Vandenberg Space Force Base

Loading…

Next Passes (next 24 hours)

TLE

FreshSource: Space-Track

Epoch: Sep 14, 2026, 14:31 UTC

1 21678U 75052JE  26257.60486437  .00001564  00000-0  28676-2 0  9990
2 21678 100.0174 163.2285 0354639  94.6940  22.1700 13.20108619688306

Track DELTA 1 DEB in real time with AllMySat

Download on the App Store